| time (UTC) | temp F | wind direction | speed MPH | gust MPH | rain 1hr in | rain 24hr in | rain mn in | humidity % | barometer mb |
| 20260508121515 | 71 | 86 | 0.0 | 0.0 | 0.00 | 0.00 | 0.00 | 48 | 1010.2 |
| 20260508120015 | 70 | 94 | 0.0 | 0.0 | 0.00 | 0.00 | 0.00 | 49 | 1010.1 |
| 20260508114514 | 71 | 80 | 0.0 | 0.0 | 0.00 | 0.00 | 0.00 | 49 | 1010.2 |
| 20260508113013 | 71 | 77 | 0.0 | 0.0 | 0.00 | 0.00 | 0.00 | 49 | 1010.2 |
| 20260508111514 | 70 | 118 | 0.0 | 0.0 | 0.00 | 0.00 | 0.00 | 51 | 1010.1 |
| 20260508110012 | 70 | 78 | 0.0 | 0.0 | 0.00 | 0.00 | 0.00 | 51 | 1010.2 |
| 20260508104511 | 70 | 25 | 0.0 | 0.0 | 0.00 | 0.00 | 0.00 | 52 | 1010.1 |
| 20260508103008 | 70 | 79 | 0.0 | 0.0 | 0.00 | 0.00 | 0.00 | 53 | 1010.0 |
| 20260508101506 | 69 | 151 | 0.0 | 0.0 | 0.00 | 0.00 | 0.00 | 62 | 1010.0 |
| 20260508100007 | 69 | 151 | 0.0 | 0.0 | 0.00 | 0.00 | 0.00 | 60 | 1010.0 |
| 20260508094502 | 69 | 181 | 0.0 | 0.0 | 0.00 | 0.00 | 0.00 | 60 | 1010.0 |
| 20260508093002 | 68 | 145 | 0.0 | 0.0 | 0.00 | 0.00 | 0.00 | 58 | 1010.0 |
| 20260508091619 | 67 | 166 | 0.0 | 0.0 | 0.00 | 0.00 | 0.00 | 60 | 1010.1 |
| 20260508090108 | 67 | 155 | 0.0 | 0.0 | 0.00 | 0.00 | 0.00 | 61 | 1010.1 |
| 20260508084553 | 66 | 171 | 0.0 | 0.0 | 0.00 | 0.00 | 0.00 | 62 | 1010.1 |
| 20260508083106 | 66 | 171 | 0.0 | 0.0 | 0.00 | 0.00 | 0.00 | 63 | 1010.0 |
| 20260508081556 | 66 | 240 | 0.0 | 0.0 | 0.00 | 0.00 | 0.00 | 64 | 1009.8 |
| 20260508080052 | 65 | 227 | 0.0 | 0.0 | 0.00 | 0.00 | 0.00 | 63 | 1009.7 |
| 20260508074540 | 66 | 191 | 0.0 | 0.0 | 0.00 | 0.00 | 0.00 | 62 | 1009.6 |
| 20260508073041 | 65 | 182 | 0.0 | 0.0 | 0.00 | 0.00 | 0.00 | 60 | 1009.4 |
| 20260508071535 | 65 | 234 | 0.0 | 0.0 | 0.00 | 0.00 | 0.00 | 63 | 1009.3 |
| 20260508070054 | 64 | 222 | 0.0 | 0.0 | 0.00 | 0.00 | 0.00 | 63 | 1009.2 |
| 20260508064532 | 64 | 273 | 0.0 | 0.0 | 0.00 | 0.00 | 0.00 | 64 | 1009.4 |
| 20260508063026 | 64 | 88 | 0.0 | 0.0 | 0.00 | 0.00 | 0.00 | 64 | 1009.2 |
| 20260508061522 | 64 | 198 | 0.0 | 0.0 | 0.00 | 0.00 | 0.00 | 61 | 1009.1 |
| 20260508060020 | 65 | 106 | 0.0 | 0.0 | 0.00 | 0.00 | 0.00 | 56 | 1009.1 |
| 20260508054515 | 62 | 281 | 0.0 | 0.0 | 0.00 | 0.00 | 0.00 | 61 | 1008.7 |
| 20260508053015 | 62 | 284 | 0.0 | 0.0 | 0.00 | 0.00 | 0.00 | 63 | 1008.7 |
| 20260508051507 | 62 | 282 | 0.0 | 0.0 | 0.00 | 0.00 | 0.00 | 60 | 1008.7 |
| 20260508050006 | 63 | 244 | 0.0 | 0.0 | 0.00 | 0.00 | 0.00 | 56 | 1008.7 |
| 20260508044601 | 64 | 138 | 0.0 | 0.0 | 0.00 | 0.00 | 0.00 | 48 | 1008.6 |
| 20260508043105 | 64 | 96 | 0.0 | 0.0 | 0.00 | 0.00 | 0.00 | 48 | 1008.3 |
| 20260508041558 | 64 | 54 | 0.0 | 0.0 | 0.00 | 0.00 | 0.00 | 46 | 1008.1 |
| 20260508040055 | 65 | 70 | 0.0 | 0.0 | 0.00 | 0.00 | 0.00 | 44 | 1008.1 |
| 20260508034554 | 65 | 78 | 0.0 | 0.0 | 0.00 | 0.00 | 0.00 | 46 | 1008.0 |
| 20260508033052 | 65 | 51 | 0.0 | 0.0 | 0.00 | 0.00 | 0.00 | 50 | 1008.0 |
| 20260508031554 | 65 | 67 | 0.0 | 0.0 | 0.00 | 0.00 | 0.00 | 53 | 1007.9 |
| 20260508030057 | 66 | 55 | 0.0 | 0.0 | 0.00 | 0.00 | 0.00 | 52 | 1007.7 |
| 20260508024556 | 66 | 42 | 0.0 | 0.0 | 0.00 | 0.00 | 0.00 | 49 | 1007.8 |
| 20260508023047 | 67 | 53 | 0.0 | 0.0 | 0.00 | 0.00 | 0.00 | 48 | 1007.9 |
| 20260508021547 | 67 | 79 | 0.0 | 0.0 | 0.00 | 0.00 | 0.00 | 48 | 1007.8 |
| 20260508020047 | 67 | 35 | 0.0 | 0.0 | 0.00 | 0.00 | 0.00 | 48 | 1007.6 |
| 20260508014545 | 67 | 44 | 0.0 | 0.0 | 0.00 | 0.00 | 0.00 | 51 | 1007.5 |
| 20260508013045 | 67 | 45 | 0.0 | 0.0 | 0.00 | 0.00 | 0.00 | 52 | 1007.5 |
| 20260508011543 | 67 | 67 | 0.0 | 0.0 | 0.00 | 0.00 | 0.00 | 53 | 1007.5 |
| 20260508010042 | 67 | 65 | 0.0 | 0.0 | 0.00 | 0.00 | 0.00 | 53 | 1007.6 |
| 20260508004540 | 67 | 59 | 0.0 | 0.0 | 0.00 | 0.01 | 0.00 | 51 | 1007.5 |
| 20260508003039 | 68 | 69 | 0.0 | 0.0 | 0.00 | 0.01 | 0.00 | 50 | 1007.7 |
| 20260508001537 | 67 | 38 | 0.0 | 0.0 | 0.00 | 0.01 | 0.00 | 50 | 1007.8 |
| 20260508000035 | 68 | 80 | 0.0 | 0.0 | 0.00 | 0.01 | 0.00 | 47 | 1008.0 |
| 20260507234540 | 67 | 119 | 0.0 | 0.0 | 0.00 | 0.01 | 0.00 | 49 | 1008.2 |
| 20260507233032 | 67 | 149 | 0.0 | 0.0 | 0.00 | 0.01 | 0.00 | 56 | 1008.4 |
| 20260507231529 | 68 | 82 | 0.0 | 0.0 | 0.00 | 0.01 | 0.00 | 48 | 1008.4 |
| 20260507230028 | 69 | 71 | 0.0 | 0.0 | 0.00 | 0.01 | 0.00 | 47 | 1008.5 |
| 20260507224526 | 69 | 67 | 0.0 | 0.0 | 0.00 | 0.01 | 0.00 | 48 | 1008.7 |
| 20260507223025 | 69 | 43 | 0.0 | 0.0 | 0.00 | 0.01 | 0.00 | 52 | 1008.6 |
| 20260507221522 | 69 | 51 | 0.0 | 0.0 | 0.00 | 0.01 | 0.00 | 54 | 1008.6 |
| 20260507220019 | 69 | 55 | 0.0 | 0.0 | 0.00 | 0.01 | 0.00 | 57 | 1008.6 |
| 20260507214518 | 69 | 57 | 0.0 | 0.0 | 0.00 | 0.01 | 0.01 | 59 | 1008.6 |
| 20260507213019 | 69 | 84 | 0.0 | 0.0 | 0.00 | 0.01 | 0.01 | 59 | 1008.8 |
| 20260507211517 | 69 | 43 | 0.0 | 0.0 | 0.00 | 0.01 | 0.01 | 59 | 1008.9 |
| 20260507210016 | 69 | 50 | 0.0 | 0.0 | 0.00 | 0.01 | 0.01 | 60 | 1008.9 |
| 20260507204516 | 69 | 38 | 0.0 | 0.0 | 0.00 | 0.01 | 0.01 | 61 | 1009.1 |
| 20260507203015 | 69 | 19 | 0.0 | 0.0 | 0.00 | 0.01 | 0.01 | 60 | 1009.3 |
| 20260507201514 | 69 | 71 | 0.0 | 0.0 | 0.00 | 0.01 | 0.01 | 59 | 1009.4 |
| 20260507200014 | 69 | 31 | 0.0 | 0.0 | 0.00 | 0.01 | 0.01 | 60 | 1009.3 |
| 20260507194514 | 69 | 46 | 0.0 | 0.0 | 0.00 | 0.01 | 0.01 | 60 | 1009.3 |
| 20260507193017 | 70 | 17 | 0.0 | 0.0 | 0.00 | 0.01 | 0.01 | 59 | 1009.3 |
| 20260507191512 | 70 | 30 | 0.0 | 0.0 | 0.00 | 0.01 | 0.01 | 59 | 1009.1 |
| 20260507190012 | 70 | 46 | 0.0 | 0.0 | 0.00 | 0.01 | 0.01 | 59 | 1009.0 |
| 20260507184511 | 70 | 23 | 0.0 | 0.0 | 0.00 | 0.01 | 0.01 | 59 | 1008.8 |
| 20260507183013 | 70 | 16 | 0.0 | 0.0 | 0.00 | 0.01 | 0.01 | 59 | 1008.7 |
| 20260507181510 | 70 | 26 | 0.0 | 0.0 | 0.00 | 0.01 | 0.01 | 58 | 1008.9 |
| 20260507180014 | 71 | 20 | 0.0 | 0.0 | 0.00 | 0.01 | 0.01 | 58 | 1008.7 |
| 20260507174512 | 72 | 22 | 0.0 | 0.0 | 0.00 | 0.01 | 0.01 | 56 | 1008.6 |
| 20260507173009 | 72 | 5 | 0.0 | 0.0 | 0.00 | 0.01 | 0.01 | 57 | 1008.5 |
| 20260507171509 | 73 | 355 | 0.0 | 0.0 | 0.00 | 0.01 | 0.01 | 57 | 1008.5 |
| 20260507170007 | 74 | 29 | 0.0 | 0.0 | 0.00 | 0.01 | 0.01 | 56 | 1008.6 |
| 20260507164509 | 76 | 202 | 0.0 | 0.0 | 0.00 | 0.01 | 0.01 | 59 | 1008.6 |
| 20260507163006 | 76 | 202 | 0.0 | 0.0 | 0.00 | 0.01 | 0.01 | 53 | 1008.5 |
| 20260507161504 | 76 | 202 | 0.0 | 0.0 | 0.00 | 0.01 | 0.01 | 53 | 1008.6 |
| 20260507160004 | 77 | 201 | 0.0 | 0.0 | 0.00 | 0.01 | 0.01 | 49 | 1008.8 |
| 20260507154501 | 76 | 191 | 0.0 | 0.0 | 0.00 | 0.01 | 0.01 | 52 | 1008.9 |
| 20260507153001 | 77 | 178 | 0.0 | 0.0 | 0.00 | 0.01 | 0.01 | 49 | 1008.9 |
| 20260507151604 | 78 | 84 | 0.0 | 0.0 | 0.00 | 0.01 | 0.01 | 52 | 1009.0 |
| 20260507150058 | 78 | 199 | 0.0 | 0.0 | 0.00 | 0.01 | 0.01 | 47 | 1009.2 |
| 20260507144603 | 77 | 174 | 0.0 | 0.0 | 0.00 | 0.01 | 0.01 | 48 | 1009.2 |
| 20260507143109 | 78 | 169 | 0.0 | 0.0 | 0.00 | 0.01 | 0.01 | 46 | 1009.1 |
| 20260507141611 | 78 | 219 | 0.0 | 0.0 | 0.00 | 0.01 | 0.01 | 48 | 1009.4 |
| 20260507140054 | 77 | 140 | 0.0 | 0.0 | 0.00 | 0.01 | 0.01 | 49 | 1009.7 |
| 20260507134554 | 78 | 264 | 0.0 | 0.0 | 0.00 | 0.01 | 0.01 | 48 | 1009.7 |
| 20260507133050 | 77 | 240 | 0.0 | 0.0 | 0.00 | 0.01 | 0.01 | 47 | 1009.8 |
| 20260507131600 | 78 | 234 | 0.0 | 0.0 | 0.00 | 0.01 | 0.01 | 47 | 1009.9 |
| 20260507130047 | 78 | 234 | 0.0 | 0.0 | 0.00 | 0.01 | 0.01 | 46 | 1010.0 |
| 20260507124544 | 78 | 259 | 0.0 | 0.0 | 0.00 | 0.01 | 0.01 | 45 | 1010.4 |
| 20260507123057 | 78 | 254 | 0.0 | 0.0 | 0.00 | 0.01 | 0.01 | 47 | 1010.4 |